Time,TemperatureF,DewpointF,PressureIn,WindDirection,WindDirectionDegrees,WindSpeedMPH,WindSpeedGustMPH,Humidity,HourlyPrecipIn,Conditions,Clouds,dailyrainin,SoftwareType,DateUTC
2013-03-05 00:00:00,46.0,39.5,29.90,NNW,346,11.0,15.0,78,0.00,,,0.00,Wunderground v.1.15,2013-03-05 06:00:00,
2013-03-05 00:01:00,45.9,39.0,29.90,NNW,332,7.0,26.0,77,0.00,,,0.00,weatherlink.com 1.10,2013-03-05 06:01:00,
2013-03-05 00:10:00,45.9,38.8,29.89,North,349,15.0,15.0,76,0.00,,,0.00,Wunderground v.1.15,2013-03-05 06:10:00,
2013-03-05 00:16:00,46.1,38.0,29.92,NNW,345,12.0,36.0,74,0.00,,,0.00,weatherlink.com 1.10,2013-03-05 06:16:00,
2013-03-05 00:25:00,46.2,38.0,29.90,North,355,20.0,25.0,73,0.00,,,0.00,Wunderground v.1.15,2013-03-05 06:25:00,
2013-03-05 00:30:00,46.1,37.9,29.90,NNW,346,21.0,30.0,73,0.00,,,0.00,Wunderground v.1.15,2013-03-05 06:30:00,
2013-03-05 00:31:00,46.1,38.0,29.90,North,355,11.0,36.0,72,0.00,,,0.00,weatherlink.com 1.10,2013-03-05 06:31:00,
2013-03-05 00:35:00,46.1,37.6,29.91,NE,35,19.0,30.0,72,0.00,,,0.00,Wunderground v.1.15,2013-03-05 06:35:00,
2013-03-05 00:40:00,46.0,37.5,29.92,North,5,19.0,23.0,72,0.00,,,0.00,Wunderground v.1.15,2013-03-05 06:40:00,
2013-03-05 00:46:00,45.9,37.0,29.93,NNW,341,32.0,37.0,71,0.00,,,0.00,weatherlink.com 1.10,2013-03-05 06:46:00,
2013-03-05 00:55:00,46.1,36.5,29.95,North,355,21.0,24.0,69,0.00,,,0.00,Wunderground v.1.15,2013-03-05 06:55:00,
2013-03-05 01:00:00,46.2,35.8,29.96,North,355,19.0,19.0,67,0.00,,,0.00,Wunderground v.1.15,2013-03-05 07:00:00,
2013-03-05 01:01:00,46.3,35.0,29.96,North,355,33.0,35.0,66,0.00,,,0.00,weatherlink.com 1.10,2013-03-05 07:01:00,
2013-03-05 01:10:00,46.5,34.6,29.99,NNW,338,22.0,26.0,63,0.00,,,0.00,Wunderground v.1.15,2013-03-05 07:10:00,
2013-03-05 01:15:00,46.5,34.2,29.99,North,355,24.0,26.0,62,0.00,,,0.00,Wunderground v.1.15,2013-03-05 07:15:00,
2013-03-05 01:16:00,46.5,34.0,29.99,NNW,346,35.0,40.0,62,0.00,,,0.00,weatherlink.com 1.10,2013-03-05 07:16:00,
2013-03-05 01:25:00,46.5,33.4,30.01,North,355,19.0,28.0,60,0.00,,,0.00,Wunderground v.1.15,2013-03-05 07:25:00,
2013-03-05 01:30:00,46.6,33.4,30.02,North,5,19.0,19.0,60,0.00,,,0.00,Wunderground v.1.15,2013-03-05 07:30:00,
2013-03-05 01:32:00,46.5,33.0,30.03,NNW,342,15.0,34.0,60,0.00,,,0.00,weatherlink.com 1.10,2013-03-05 07:32:00,
2013-03-05 01:40:00,46.6,33.4,30.03,NE,49,19.0,19.0,60,0.00,,,0.00,Wunderground v.1.15,2013-03-05 07:40:00,
2013-03-05 01:47:00,46.5,34.0,30.04,NNW,333,25.0,35.0,61,0.00,,,0.00,weatherlink.com 1.10,2013-03-05 07:47:00,
2013-03-05 01:55:00,46.5,33.8,30.05,North,350,18.0,22.0,61,0.00,,,0.00,Wunderground v.1.15,2013-03-05 07:55:00,
2013-03-05 02:00:00,46.3,34.0,30.04,North,360,17.0,17.0,62,0.00,,,0.00,Wunderground v.1.15,2013-03-05 08:00:00,
2013-03-05 02:02:00,46.2,34.0,30.04,North,5,14.0,36.0,62,0.00,,,0.00,weatherlink.com 1.10,2013-03-05 08:02:00,
2013-03-05 02:10:00,46.0,34.1,30.07,North,349,20.0,20.0,63,0.00,,,0.00,Wunderground v.1.15,2013-03-05 08:10:00,
2013-03-05 02:15:00,45.8,34.3,30.07,NNE,29,17.0,20.0,64,0.00,,,0.00,Wunderground v.1.15,2013-03-05 08:15:00,
2013-03-05 02:17:00,45.8,34.0,30.07,NNE,30,21.0,32.0,64,0.00,,,0.00,weatherlink.com 1.10,2013-03-05 08:17:00,
2013-03-05 02:20:00,45.7,34.6,30.07,NNW,344,15.0,17.0,65,0.00,,,0.00,Wunderground v.1.15,2013-03-05 08:20:00,
2013-03-05 02:25:00,45.5,34.8,30.07,North,9,17.0,17.0,66,0.00,,,0.00,Wunderground v.1.15,2013-03-05 08:25:00,
2013-03-05 02:32:00,45.2,35.0,30.06,NNE,29,10.0,29.0,67,0.00,,,0.00,weatherlink.com 1.10,2013-03-05 08:32:00,
2013-03-05 02:40:00,45.0,35.1,30.08,NNE,26,14.0,14.0,68,0.00,,,0.00,Wunderground v.1.15,2013-03-05 08:40:00,
2013-03-05 02:45:00,45.1,35.2,30.09,North,360,16.0,21.0,68,0.00,,,0.00,Wunderground v.1.15,2013-03-05 08:45:00,
2013-03-05 02:47:00,45.1,35.0,30.09,North,355,17.0,31.0,68,0.00,,,0.00,weatherlink.com 1.10,2013-03-05 08:47:00,
2013-03-05 02:55:00,45.1,35.2,30.10,North,350,15.0,16.0,68,0.00,,,0.00,Wunderground v.1.15,2013-03-05 08:55:00,
2013-03-05 03:00:00,45.0,35.1,30.11,North,355,16.0,16.0,68,0.00,,,0.00,Wunderground v.1.15,2013-03-05 09:00:00,
2013-03-05 03:02:00,45.0,35.0,30.11,North,360,16.0,36.0,68,0.00,,,0.00,weatherlink.com 1.10,2013-03-05 09:02:00,
2013-03-05 03:10:00,44.4,34.9,30.11,NW,323,17.0,23.0,69,0.00,,,0.00,Wunderground v.1.15,2013-03-05 09:10:00,
2013-03-05 03:15:00,44.1,34.9,30.11,NNW,338,17.0,23.0,70,0.00,,,0.00,Wunderground v.1.15,2013-03-05 09:15:00,
2013-03-05 03:18:00,44.0,35.0,30.11,NNW,344,11.0,28.0,71,0.00,,,0.00,weatherlink.com 1.10,2013-03-05 09:18:00,
2013-03-05 03:25:00,43.4,34.6,30.12,NNW,340,14.0,14.0,71,0.00,,,0.00,Wunderground v.1.15,2013-03-05 09:25:00,
2013-03-05 03:34:00,42.9,34.0,30.13,NNW,333,13.0,25.0,71,0.00,,,0.00,weatherlink.com 1.10,2013-03-05 09:34:00,
2013-03-05 03:35:00,42.9,34.1,30.13,North,5,14.0,15.0,71,0.00,,,0.00,Wunderground v.1.15,2013-03-05 09:35:00,
2013-03-05 03:45:00,42.7,33.2,30.13,North,360,15.0,17.0,69,0.00,,,0.00,Wunderground v.1.15,2013-03-05 09:45:00,
2013-03-05 03:49:00,42.7,33.0,30.14,NNW,344,10.0,23.0,69,0.00,,,0.00,weatherlink.com 1.10,2013-03-05 09:49:00,
2013-03-05 03:55:00,42.6,32.8,30.14,NNE,12,15.0,21.0,68,0.00,,,0.00,Wunderground v.1.15,2013-03-05 09:55:00,
2013-03-05 04:03:00,42.5,32.0,30.14,North,5,9.0,24.0,67,0.00,,,0.00,weatherlink.com 1.10,2013-03-05 10:03:00,
2013-03-05 04:05:00,42.4,32.2,30.15,North,5,13.0,14.0,67,0.00,,,0.00,Wunderground v.1.15,2013-03-05 10:05:00,
2013-03-05 04:10:00,42.4,31.8,30.15,NNE,13,13.0,13.0,66,0.00,,,0.00,Wunderground v.1.15,2013-03-05 10:10:00,
2013-03-05 04:15:00,42.2,32.0,30.15,NNW,348,13.0,17.0,67,0.00,,,0.00,Wunderground v.1.15,2013-03-05 10:15:00,
2013-03-05 04:18:00,42.2,31.0,30.15,North,5,11.0,21.0,66,0.00,,,0.00,weatherlink.com 1.10,2013-03-05 10:18:00,
2013-03-05 04:20:00,42.1,31.9,30.15,North,360,12.0,12.0,67,0.00,,,0.00,Wunderground v.1.15,2013-03-05 10:20:00,
2013-03-05 04:25:00,42.1,31.6,30.16,NNE,23,12.0,14.0,66,0.00,,,0.00,Wunderground v.1.15,2013-03-05 10:25:00,
2013-03-05 04:30:00,42.1,31.6,30.16,North,360,12.0,12.0,66,0.00,,,0.00,Wunderground v.1.15,2013-03-05 10:30:00,
2013-03-05 04:33:00,42.0,31.0,30.16,North,355,14.0,21.0,66,0.00,,,0.00,weatherlink.com 1.10,2013-03-05 10:33:00,
2013-03-05 04:40:00,42.0,31.5,30.16,North,355,10.0,12.0,66,0.00,,,0.00,Wunderground v.1.15,2013-03-05 10:40:00,
2013-03-05 04:45:00,42.0,31.1,30.16,NNW,345,11.0,12.0,65,0.00,,,0.00,Wunderground v.1.15,2013-03-05 10:45:00,
2013-03-05 04:49:00,42.0,31.0,30.18,NNW,338,8.0,20.0,65,0.00,,,0.00,weatherlink.com 1.10,2013-03-05 10:49:00,
2013-03-05 04:55:00,42.0,31.1,30.18,NNW,342,12.0,14.0,65,0.00,,,0.00,Wunderground v.1.15,2013-03-05 10:55:00,
2013-03-05 05:00:00,41.9,31.0,30.19,NNE,18,11.0,14.0,65,0.00,,,0.00,Wunderground v.1.15,2013-03-05 11:00:00,
2013-03-05 05:03:00,41.9,31.0,30.19,North,355,12.0,18.0,65,0.00,,,0.00,weatherlink.com 1.10,2013-03-05 11:03:00,
2013-03-05 05:10:00,41.9,30.6,30.19,North,355,11.0,12.0,64,0.00,,,0.00,Wunderground v.1.15,2013-03-05 11:10:00,
2013-03-05 05:19:00,41.8,30.0,30.20,North,349,8.0,21.0,64,0.00,,,0.00,weatherlink.com 1.10,2013-03-05 11:19:00,
2013-03-05 05:25:00,41.7,30.8,30.20,North,5,11.0,12.0,65,0.00,,,0.00,Wunderground v.1.15,2013-03-05 11:25:00,
2013-03-05 05:30:00,41.6,30.7,30.20,NW,320,10.0,10.0,65,0.00,,,0.00,Wunderground v.1.15,2013-03-05 11:30:00,
2013-03-05 05:34:00,41.6,31.0,30.21,NNE,30,8.0,13.0,65,0.00,,,0.00,weatherlink.com 1.10,2013-03-05 11:34:00,
2013-03-05 05:40:00,41.5,30.6,30.21,NNW,345,8.0,9.0,65,0.00,,,0.00,Wunderground v.1.15,2013-03-05 11:40:00,
2013-03-05 05:45:00,41.5,31.0,30.21,North,5,8.0,9.0,66,0.00,,,0.00,Wunderground v.1.15,2013-03-05 11:45:00,
2013-03-05 05:49:00,41.3,31.0,30.21,NNW,346,7.0,17.0,66,0.00,,,0.00,weatherlink.com 1.10,2013-03-05 11:49:00,
2013-03-05 05:55:00,41.3,31.2,30.22,NNE,12,8.0,8.0,67,0.00,,,0.00,Wunderground v.1.15,2013-03-05 11:55:00,
2013-03-05 06:00:00,41.3,31.2,30.22,North,350,7.0,7.0,67,0.00,,,0.00,Wunderground v.1.15,2013-03-05 12:00:00,
2013-03-05 06:04:00,41.3,31.0,30.22,North,9,7.0,12.0,67,0.00,,,0.00,weatherlink.com 1.10,2013-03-05 12:04:00,
2013-03-05 06:10:00,41.3,30.8,30.23,North,360,8.0,8.0,66,0.00,,,0.00,Wunderground v.1.15,2013-03-05 12:10:00,
2013-03-05 06:15:00,41.4,29.7,30.23,NNW,332,10.0,13.0,63,0.00,,,0.00,Wunderground v.1.15,2013-03-05 12:15:00,
2013-03-05 06:19:00,41.3,29.0,30.23,NNW,331,8.0,19.0,63,0.00,,,0.00,weatherlink.com 1.10,2013-03-05 12:19:00,
2013-03-05 06:25:00,41.2,29.5,30.23,NNW,335,9.0,10.0,63,0.00,,,0.00,Wunderground v.1.15,2013-03-05 12:25:00,
2013-03-05 06:30:00,41.1,29.1,30.23,North,355,10.0,10.0,62,0.00,,,0.00,Wunderground v.1.15,2013-03-05 12:30:00,
2013-03-05 06:34:00,41.1,29.0,30.23,NNW,342,8.0,20.0,62,0.00,,,0.00,weatherlink.com 1.10,2013-03-05 12:34:00,
2013-03-05 06:40:00,40.9,28.5,30.24,NNW,336,9.0,9.0,61,0.00,,,0.00,Wunderground v.1.15,2013-03-05 12:40:00,
2013-03-05 06:45:00,40.7,27.9,30.24,NNW,329,8.0,9.0,60,0.00,,,0.00,Wunderground v.1.15,2013-03-05 12:45:00,
2013-03-05 06:49:00,40.5,27.0,30.25,NNE,19,11.0,19.0,59,0.00,,,0.00,weatherlink.com 1.10,2013-03-05 12:49:00,
2013-03-05 06:50:00,40.5,26.9,30.25,NW,313,9.0,9.0,58,0.00,,,0.00,Wunderground v.1.15,2013-03-05 12:50:00,
2013-03-05 06:55:00,40.3,25.8,30.26,North,360,10.0,10.0,56,0.00,,,0.00,Wunderground v.1.15,2013-03-05 12:55:00,
2013-03-05 07:04:00,40.0,24.0,30.26,North,360,8.0,25.0,53,0.00,,,0.00,weatherlink.com 1.10,2013-03-05 13:04:00,
2013-03-05 07:10:00,39.8,23.6,30.26,NNW,333,12.0,12.0,52,0.00,,,0.00,Wunderground v.1.15,2013-03-05 13:10:00,
2013-03-05 07:20:00,39.6,23.4,30.27,NNW,345,12.0,12.0,52,0.00,,,0.00,Wunderground v.1.15,2013-03-05 13:20:00,
2013-03-05 07:21:00,39.6,23.0,30.27,North,360,13.0,21.0,52,0.00,,,0.00,weatherlink.com 1.10,2013-03-05 13:21:00,
2013-03-05 07:30:00,39.3,23.1,30.27,NNW,348,14.0,20.0,52,0.00,,,0.00,Wunderground v.1.15,2013-03-05 13:30:00,
2013-03-05 07:36:00,39.2,22.0,30.27,NNW,344,20.0,30.0,50,0.00,,,0.00,weatherlink.com 1.10,2013-03-05 13:36:00,
2013-03-05 07:45:00,39.3,22.2,30.27,North,5,15.0,18.0,50,0.00,,,0.00,Wunderground v.1.15,2013-03-05 13:45:00,
2013-03-05 08:31:00,39.6,22.0,30.31,NNW,347,12.0,26.0,49,0.00,,,0.00,weatherlink.com 1.10,2013-03-05 14:31:00,
2013-03-05 08:36:00,39.8,22.0,30.32,NW,319,13.0,26.0,49,0.00,,,0.00,weatherlink.com 1.10,2013-03-05 14:36:00,
2013-03-05 08:40:00,39.9,21.8,30.32,North,5,14.0,26.0,48,0.00,,,0.00,Wunderground v.1.15,2013-03-05 14:40:00,
2013-03-05 08:45:00,39.9,21.8,30.32,NNE,18,16.0,26.0,48,0.00,,,0.00,Wunderground v.1.15,2013-03-05 14:45:00,
2013-03-05 08:50:00,40.4,21.7,30.32,NNW,348,13.0,18.0,47,0.00,,,0.00,Wunderground v.1.15,2013-03-05 14:50:00,
2013-03-05 08:51:00,40.4,21.0,30.32,NNE,26,11.0,22.0,47,0.00,,,0.00,weatherlink.com 1.10,2013-03-05 14:51:00,
2013-03-05 09:00:00,40.6,21.9,30.33,NNW,341,14.0,14.0,47,0.00,,,0.00,Wunderground v.1.15,2013-03-05 15:00:00,
2013-03-05 09:06:00,40.6,21.0,30.33,North,360,14.0,22.0,45,0.00,,,0.00,weatherlink.com 1.10,2013-03-05 15:06:00,
2013-03-05 09:10:00,40.7,20.5,30.34,NNW,338,13.0,13.0,44,0.00,,,0.00,Wunderground v.1.15,2013-03-05 15:10:00,
2013-03-05 09:20:00,41.1,19.7,30.35,NW,321,14.0,14.0,42,0.00,,,0.00,Wunderground v.1.15,2013-03-05 15:20:00,
2013-03-05 09:21:00,41.2,20.0,30.35,NW,322,9.0,24.0,42,0.00,,,0.00,weatherlink.com 1.10,2013-03-05 15:21:00,
2013-03-05 09:25:00,40.9,18.4,30.35,North,11,13.0,21.0,40,0.00,,,0.00,Wunderground v.1.15,2013-03-05 15:25:00,
2013-03-05 09:30:00,40.8,18.3,30.35,North,351,15.0,15.0,40,0.00,,,0.00,Wunderground v.1.15,2013-03-05 15:30:00,
2013-03-05 09:35:00,40.9,18.4,30.36,NNE,24,15.0,15.0,40,0.00,,,0.00,Wunderground v.1.15,2013-03-05 15:35:00,
2013-03-05 09:36:00,41.0,18.0,30.36,North,5,12.0,24.0,40,0.00,,,0.00,weatherlink.com 1.10,2013-03-05 15:36:00,
2013-03-05 09:45:00,41.1,17.4,30.36,North,11,13.0,14.0,38,0.00,,,0.00,Wunderground v.1.15,2013-03-05 15:45:00,
2013-03-05 09:51:00,41.4,17.0,30.36,NNW,342,10.0,26.0,38,0.00,,,0.00,weatherlink.com 1.10,2013-03-05 15:51:00,
2013-03-05 10:00:00,41.7,16.0,30.37,NNE,12,13.0,13.0,35,0.00,,,0.00,Wunderground v.1.15,2013-03-05 16:00:00,
2013-03-05 10:05:00,41.6,15.9,30.36,NNE,31,14.0,14.0,35,0.00,,,0.00,Wunderground v.1.15,2013-03-05 16:05:00,
2013-03-05 10:06:00,41.5,16.0,30.36,NNE,16,11.0,24.0,36,0.00,,,0.00,weatherlink.com 1.10,2013-03-05 16:06:00,
2013-03-05 10:15:00,42.2,16.5,30.36,North,350,14.0,15.0,35,0.00,,,0.00,Wunderground v.1.15,2013-03-05 16:15:00,
2013-03-05 10:20:00,42.2,17.1,30.36,NW,315,13.0,13.0,36,0.00,,,0.00,Wunderground v.1.15,2013-03-05 16:20:00,
2013-03-05 10:21:00,42.2,17.0,30.36,NNW,339,14.0,24.0,36,0.00,,,0.00,weatherlink.com 1.10,2013-03-05 16:21:00,
2013-03-05 10:30:00,42.8,17.0,30.36,North,355,14.0,14.0,35,0.00,,,0.00,Wunderground v.1.15,2013-03-05 16:30:00,
2013-03-05 10:35:00,42.7,16.9,30.36,NNW,340,15.0,18.0,35,0.00,,,0.00,Wunderground v.1.15,2013-03-05 16:35:00,
2013-03-05 10:37:00,42.6,17.0,30.36,NNW,344,8.0,24.0,35,0.00,,,0.00,weatherlink.com 1.10,2013-03-05 16:37:00,
2013-03-05 10:45:00,43.2,16.7,30.36,North,351,14.0,14.0,34,0.00,,,0.00,Wunderground v.1.15,2013-03-05 16:45:00,
2013-03-05 10:50:00,43.5,16.9,30.36,NNE,15,13.0,13.0,34,0.00,,,0.00,Wunderground v.1.15,2013-03-05 16:50:00,
2013-03-05 10:52:00,43.4,16.0,30.37,North,355,11.0,29.0,33,0.00,,,0.00,weatherlink.com 1.10,2013-03-05 16:52:00,
2013-03-05 11:00:00,43.5,16.9,30.37,NNW,348,14.0,15.0,34,0.00,,,0.00,Wunderground v.1.15,2013-03-05 17:00:00,
2013-03-05 11:05:00,43.7,16.4,30.37,NNW,336,13.0,15.0,33,0.00,,,0.00,Wunderground v.1.15,2013-03-05 17:05:00,
2013-03-05 11:07:00,43.9,17.0,30.37,North,9,10.0,20.0,34,0.00,,,0.00,weatherlink.com 1.10,2013-03-05 17:07:00,
2013-03-05 11:15:00,44.3,16.3,30.37,NW,324,11.0,13.0,32,0.00,,,0.00,Wunderground v.1.15,2013-03-05 17:15:00,
2013-03-05 11:20:00,44.6,16.5,30.37,NNW,339,13.0,16.0,32,0.00,,,0.00,Wunderground v.1.15,2013-03-05 17:20:00,
2013-03-05 11:22:00,44.5,15.0,30.37,North,360,13.0,21.0,31,0.00,,,0.00,weatherlink.com 1.10,2013-03-05 17:22:00,
2013-03-05 11:25:00,44.6,16.5,30.37,North,360,13.0,16.0,32,0.00,,,0.00,Wunderground v.1.15,2013-03-05 17:25:00,
2013-03-05 11:30:00,44.8,16.7,30.38,NNW,345,12.0,12.0,32,0.00,,,0.00,Wunderground v.1.15,2013-03-05 17:30:00,
2013-03-05 11:35:00,45.0,16.1,30.37,NNW,344,13.0,16.0,31,0.00,,,0.00,Wunderground v.1.15,2013-03-05 17:35:00,
2013-03-05 11:37:00,45.0,16.0,30.38,NNW,341,14.0,23.0,31,0.00,,,0.00,weatherlink.com 1.10,2013-03-05 17:37:00,
2013-03-05 11:45:00,45.1,16.2,30.38,North,349,13.0,13.0,31,0.00,,,0.00,Wunderground v.1.15,2013-03-05 17:45:00,
2013-03-05 11:50:00,45.4,17.2,30.38,NNW,347,12.0,15.0,32,0.00,,,0.00,Wunderground v.1.15,2013-03-05 17:50:00,
2013-03-05 11:52:00,45.3,17.0,30.38,NNE,13,14.0,19.0,32,0.00,,,0.00,weatherlink.com 1.10,2013-03-05 17:52:00,
2013-03-05 12:00:00,46.0,17.0,30.38,NNE,22,11.0,13.0,31,0.00,,,0.00,Wunderground v.1.15,2013-03-05 18:00:00,
2013-03-05 12:05:00,45.8,16.8,30.38,NNW,348,10.0,13.0,31,0.00,,,0.00,Wunderground v.1.15,2013-03-05 18:05:00,
2013-03-05 12:07:00,45.8,17.0,30.38,NW,326,12.0,22.0,31,0.00,,,0.00,weatherlink.com 1.10,2013-03-05 18:07:00,
2013-03-05 12:15:00,46.2,16.4,30.37,NW,307,13.0,13.0,30,0.00,,,0.00,Wunderground v.1.15,2013-03-05 18:15:00,
2013-03-05 12:20:00,46.7,16.9,30.38,North,360,12.0,12.0,30,0.00,,,0.00,Wunderground v.1.15,2013-03-05 18:20:00,
2013-03-05 12:22:00,46.9,17.0,30.38,NE,54,12.0,23.0,30,0.00,,,0.00,weatherlink.com 1.10,2013-03-05 18:22:00,
2013-03-05 12:30:00,46.5,16.7,30.37,NNW,331,11.0,19.0,30,0.00,,,0.00,Wunderground v.1.15,2013-03-05 18:30:00,
2013-03-05 12:35:00,46.7,17.6,30.37,NW,326,12.0,19.0,31,0.00,,,0.00,Wunderground v.1.15,2013-03-05 18:35:00,
2013-03-05 12:37:00,46.8,17.0,30.37,North,351,14.0,24.0,30,0.00,,,0.00,weatherlink.com 1.10,2013-03-05 18:37:00,
2013-03-05 12:45:00,47.0,17.1,30.37,North,9,13.0,14.0,30,0.00,,,0.00,Wunderground v.1.15,2013-03-05 18:45:00,
2013-03-05 12:50:00,47.0,17.9,30.37,NNW,348,11.0,11.0,31,0.00,,,0.00,Wunderground v.1.15,2013-03-05 18:50:00,
2013-03-05 12:52:00,47.4,18.0,30.36,NW,321,20.0,23.0,31,0.00,,,0.00,weatherlink.com 1.10,2013-03-05 18:52:00,
2013-03-05 13:00:00,47.1,18.0,30.36,NW,326,13.0,14.0,31,0.00,,,0.00,Wunderground v.1.15,2013-03-05 19:00:00,
2013-03-05 13:08:00,48.6,17.0,30.36,North,5,12.0,21.0,29,0.00,,,0.00,weatherlink.com 1.10,2013-03-05 19:08:00,
2013-03-05 13:15:00,48.7,17.0,30.36,NW,324,13.0,17.0,28,0.00,,,0.00,Wunderground v.1.15,2013-03-05 19:15:00,
2013-03-05 13:20:00,48.4,17.6,30.36,North,360,13.0,17.0,29,0.00,,,0.00,Wunderground v.1.15,2013-03-05 19:20:00,
2013-03-05 13:24:00,48.7,18.0,30.36,NNW,348,12.0,21.0,29,0.00,,,0.00,weatherlink.com 1.10,2013-03-05 19:24:00,
2013-03-05 13:30:00,48.5,17.6,30.35,NNW,327,14.0,17.0,29,0.00,,,0.00,Wunderground v.1.15,2013-03-05 19:30:00,
2013-03-05 13:35:00,48.4,17.6,30.35,NNW,342,14.0,17.0,29,0.00,,,0.00,Wunderground v.1.15,2013-03-05 19:35:00,
2013-03-05 13:39:00,48.7,17.0,30.35,NNW,341,16.0,22.0,28,0.00,,,0.00,weatherlink.com 1.10,2013-03-05 19:39:00,
2013-03-05 13:45:00,49.2,17.4,30.34,NW,323,13.0,13.0,28,0.00,,,0.00,Wunderground v.1.15,2013-03-05 19:45:00,
2013-03-05 13:50:00,49.4,18.4,30.34,NNW,338,11.0,11.0,29,0.00,,,0.00,Wunderground v.1.15,2013-03-05 19:50:00,
2013-03-05 13:54:00,49.6,18.0,30.34,North,355,11.0,19.0,29,0.00,,,0.00,weatherlink.com 1.10,2013-03-05 19:54:00,
2013-03-05 14:00:00,49.9,18.9,30.34,NNW,340,9.0,10.0,29,0.00,,,0.00,Wunderground v.1.15,2013-03-05 20:00:00,
2013-03-05 14:05:00,50.1,18.2,30.34,WNW,298,9.0,10.0,28,0.00,,,0.00,Wunderground v.1.15,2013-03-05 20:05:00,
2013-03-05 14:09:00,50.2,18.0,30.34,NNW,341,8.0,23.0,28,0.00,,,0.00,weatherlink.com 1.10,2013-03-05 20:09:00,
2013-03-05 14:15:00,50.2,18.3,30.33,North,5,10.0,10.0,28,0.00,,,0.00,Wunderground v.1.15,2013-03-05 20:15:00,
2013-03-05 14:20:00,50.0,18.1,30.33,NNW,335,12.0,12.0,28,0.00,,,0.00,Wunderground v.1.15,2013-03-05 20:20:00,
2013-03-05 14:23:00,50.3,18.0,30.33,NNW,347,11.0,26.0,28,0.00,,,0.00,weatherlink.com 1.10,2013-03-05 20:23:00,
2013-03-05 14:30:00,50.6,19.5,30.33,NW,314,11.0,11.0,29,0.00,,,0.00,Wunderground v.1.15,2013-03-05 20:30:00,
2013-03-05 14:35:00,50.3,19.2,30.33,NNE,32,11.0,11.0,29,0.00,,,0.00,Wunderground v.1.15,2013-03-05 20:35:00,
2013-03-05 14:39:00,50.3,18.0,30.32,NNW,340,17.0,22.0,28,0.00,,,0.00,weatherlink.com 1.10,2013-03-05 20:39:00,
2013-03-05 14:45:00,50.8,18.8,30.33,NNW,327,12.0,14.0,28,0.00,,,0.00,Wunderground v.1.15,2013-03-05 20:45:00,
2013-03-05 14:50:00,50.6,18.6,30.33,NW,319,12.0,13.0,28,0.00,,,0.00,Wunderground v.1.15,2013-03-05 20:50:00,
2013-03-05 14:54:00,50.8,19.0,30.33,NW,326,10.0,21.0,28,0.00,,,0.00,weatherlink.com 1.10,2013-03-05 20:54:00,
2013-03-05 15:00:00,50.7,17.9,30.33,NNE,16,11.0,12.0,27,0.00,,,0.00,Wunderground v.1.15,2013-03-05 21:00:00,
2013-03-05 15:05:00,50.9,18.1,30.33,NNW,344,12.0,12.0,27,0.00,,,0.00,Wunderground v.1.15,2013-03-05 21:05:00,
2013-03-05 15:09:00,50.7,18.0,30.33,North,5,9.0,23.0,28,0.00,,,0.00,weatherlink.com 1.10,2013-03-05 21:09:00,
2013-03-05 15:15:00,51.0,18.1,30.33,NW,313,12.0,12.0,27,0.00,,,0.00,Wunderground v.1.15,2013-03-05 21:15:00,
2013-03-05 15:24:00,51.3,19.0,30.32,NNW,327,9.0,16.0,28,0.00,,,0.00,weatherlink.com 1.10,2013-03-05 21:24:00,
2013-03-05 15:25:00,51.4,19.3,30.33,NW,315,9.0,11.0,28,0.00,,,0.00,Wunderground v.1.15,2013-03-05 21:25:00,
2013-03-05 15:30:00,51.5,19.4,30.32,NNW,348,9.0,13.0,28,0.00,,,0.00,Wunderground v.1.15,2013-03-05 21:30:00,
2013-03-05 15:35:00,51.4,20.2,30.32,NNE,17,11.0,18.0,29,0.00,,,0.00,Wunderground v.1.15,2013-03-05 21:35:00,
2013-03-05 15:39:00,51.9,19.0,30.33,North,355,9.0,20.0,27,0.00,,,0.00,weatherlink.com 1.10,2013-03-05 21:39:00,
2013-03-05 15:45:00,51.6,19.5,30.33,NW,320,11.0,11.0,28,0.00,,,0.00,Wunderground v.1.15,2013-03-05 21:45:00,
2013-03-05 15:50:00,51.4,19.3,30.33,NNW,345,12.0,12.0,28,0.00,,,0.00,Wunderground v.1.15,2013-03-05 21:50:00,
2013-03-05 15:54:00,51.3,19.0,30.33,NW,309,11.0,23.0,28,0.00,,,0.00,weatherlink.com 1.10,2013-03-05 21:54:00,
2013-03-05 16:00:00,51.4,20.2,30.33,North,360,12.0,12.0,29,0.00,,,0.00,Wunderground v.1.15,2013-03-05 22:00:00,
2013-03-05 16:09:00,51.4,19.0,30.33,North,5,10.0,21.0,28,0.00,,,0.00,weatherlink.com 1.10,2013-03-05 22:09:00,
2013-03-05 16:15:00,51.1,19.9,30.33,NNW,336,12.0,15.0,29,0.00,,,0.00,Wunderground v.1.15,2013-03-05 22:15:00,
2013-03-05 16:24:00,51.0,20.0,30.33,NNW,338,15.0,21.0,29,0.00,,,0.00,weatherlink.com 1.10,2013-03-05 22:24:00,
2013-03-05 16:30:00,51.0,20.6,30.33,NW,316,11.0,11.0,30,0.00,,,0.00,Wunderground v.1.15,2013-03-05 22:30:00,
2013-03-05 16:35:00,51.0,20.6,30.33,NNE,30,9.0,11.0,30,0.00,,,0.00,Wunderground v.1.15,2013-03-05 22:35:00,
2013-03-05 16:39:00,51.2,20.0,30.33,North,9,14.0,16.0,29,0.00,,,0.00,weatherlink.com 1.10,2013-03-05 22:39:00,
2013-03-05 16:45:00,51.4,20.2,30.33,NNW,336,9.0,10.0,29,0.00,,,0.00,Wunderground v.1.15,2013-03-05 22:45:00,
2013-03-05 16:50:00,51.3,20.1,30.33,NNW,342,9.0,9.0,29,0.00,,,0.00,Wunderground v.1.15,2013-03-05 22:50:00,
2013-03-05 16:54:00,51.3,21.0,30.33,NNW,348,12.0,19.0,30,0.00,,,0.00,weatherlink.com 1.10,2013-03-05 22:54:00,
2013-03-05 17:00:00,51.2,20.0,30.33,NW,318,9.0,14.0,29,0.00,,,0.00,Wunderground v.1.15,2013-03-05 23:00:00,
2013-03-05 17:05:00,51.1,19.9,30.33,North,355,9.0,14.0,29,0.00,,,0.00,Wunderground v.1.15,2013-03-05 23:05:00,
2013-03-05 17:09:00,51.2,20.0,30.33,NNW,343,10.0,17.0,29,0.00,,,0.00,weatherlink.com 1.10,2013-03-05 23:09:00,
2013-03-05 17:15:00,50.8,20.4,30.33,NW,323,8.0,10.0,30,0.00,,,0.00,Wunderground v.1.15,2013-03-05 23:15:00,
2013-03-05 17:24:00,50.5,20.0,30.34,North,360,10.0,22.0,30,0.00,,,0.00,weatherlink.com 1.10,2013-03-05 23:24:00,
2013-03-05 17:30:00,50.3,20.0,30.34,North,5,9.0,9.0,30,0.00,,,0.00,Wunderground v.1.15,2013-03-05 23:30:00,
2013-03-05 17:35:00,50.2,19.9,30.34,NW,323,9.0,11.0,30,0.00,,,0.00,Wunderground v.1.15,2013-03-05 23:35:00,
2013-03-05 17:39:00,50.1,20.0,30.34,NNW,338,7.0,19.0,30,0.00,,,0.00,weatherlink.com 1.10,2013-03-05 23:39:00,
2013-03-05 17:45:00,50.2,19.9,30.34,North,355,10.0,10.0,30,0.00,,,0.00,Wunderground v.1.15,2013-03-05 23:45:00,
2013-03-05 17:50:00,50.1,19.8,30.34,NNW,337,10.0,17.0,30,0.00,,,0.00,Wunderground v.1.15,2013-03-05 23:50:00,
2013-03-05 17:55:00,49.9,19.7,30.34,North,355,10.0,17.0,30,0.00,,,0.00,Wunderground v.1.15,2013-03-05 23:55:00,
2013-03-05 17:56:00,49.9,19.0,30.34,NNW,346,10.0,18.0,30,0.00,,,0.00,weatherlink.com 1.10,2013-03-05 23:56:00,
2013-03-05 18:05:00,49.8,20.3,30.35,North,360,7.0,11.0,31,0.00,,,0.00,Wunderground v.1.15,2013-03-06 00:05:00,
2013-03-05 18:10:00,49.6,20.2,30.35,North,360,8.0,8.0,31,0.00,,,0.00,Wunderground v.1.15,2013-03-06 00:10:00,
2013-03-05 18:11:00,49.6,20.0,30.35,NW,319,6.0,14.0,31,0.00,,,0.00,weatherlink.com 1.10,2013-03-06 00:11:00,
2013-03-05 18:20:00,49.3,19.9,30.35,NW,312,8.0,8.0,31,0.00,,,0.00,Wunderground v.1.15,2013-03-06 00:20:00,
2013-03-05 18:26:00,49.2,20.0,30.36,NNW,330,8.0,12.0,31,0.00,,,0.00,weatherlink.com 1.10,2013-03-06 00:26:00,
2013-03-05 18:35:00,48.9,20.3,30.36,NNW,340,6.0,8.0,32,0.00,,,0.00,Wunderground v.1.15,2013-03-06 00:35:00,
2013-03-05 18:40:00,48.8,20.2,30.36,NW,311,6.0,6.0,32,0.00,,,0.00,Wunderground v.1.15,2013-03-06 00:40:00,
2013-03-05 18:41:00,48.7,20.0,30.36,NNW,342,4.0,12.0,32,0.00,,,0.00,weatherlink.com 1.10,2013-03-06 00:41:00,
2013-03-05 18:50:00,48.4,20.6,30.36,North,9,6.0,6.0,33,0.00,,,0.00,Wunderground v.1.15,2013-03-06 00:50:00,
2013-03-05 18:55:00,48.2,20.4,30.36,NNW,346,6.0,6.0,33,0.00,,,0.00,Wunderground v.1.15,2013-03-06 00:55:00,
2013-03-05 18:56:00,48.2,20.0,30.36,NNW,342,5.0,11.0,33,0.00,,,0.00,weatherlink.com 1.10,2013-03-06 00:56:00,
2013-03-05 19:05:00,47.9,20.8,30.36,NNW,339,5.0,8.0,34,0.00,,,0.00,Wunderground v.1.15,2013-03-06 01:05:00,
2013-03-05 19:11:00,47.7,20.0,30.36,North,360,6.0,10.0,34,0.00,,,0.00,weatherlink.com 1.10,2013-03-06 01:11:00,
2013-03-05 19:20:00,47.4,21.1,30.37,North,350,5.0,5.0,35,0.00,,,0.00,Wunderground v.1.15,2013-03-06 01:20:00,
2013-03-05 19:25:00,47.3,21.0,30.37,NNW,347,6.0,6.0,35,0.00,,,0.00,Wunderground v.1.15,2013-03-06 01:25:00,
2013-03-05 19:26:00,47.3,21.0,30.37,NNW,340,8.0,11.0,35,0.00,,,0.00,weatherlink.com 1.10,2013-03-06 01:26:00,
2013-03-05 19:30:00,47.3,21.0,30.37,NNW,334,6.0,6.0,35,0.00,,,0.00,Wunderground v.1.15,2013-03-06 01:30:00,
2013-03-05 19:35:00,47.1,20.8,30.37,NNW,336,5.0,6.0,35,0.00,,,0.00,Wunderground v.1.15,2013-03-06 01:35:00,
2013-03-05 19:40:00,47.0,20.7,30.38,NNW,346,5.0,8.0,35,0.00,,,0.00,Wunderground v.1.15,2013-03-06 01:40:00,
2013-03-05 19:41:00,46.9,20.0,30.38,North,350,5.0,11.0,35,0.00,,,0.00,weatherlink.com 1.10,2013-03-06 01:41:00,
2013-03-05 19:50:00,46.7,21.1,30.38,NNW,340,5.0,6.0,36,0.00,,,0.00,Wunderground v.1.15,2013-03-06 01:50:00,
2013-03-05 19:56:00,46.4,21.0,30.38,NNW,347,5.0,10.0,36,0.00,,,0.00,weatherlink.com 1.10,2013-03-06 01:56:00,
2013-03-05 20:05:00,45.9,21.7,30.38,North,355,6.0,8.0,38,0.00,,,0.00,Wunderground v.1.15,2013-03-06 02:05:00,
2013-03-05 20:10:00,45.7,21.5,30.38,North,360,7.0,7.0,38,0.00,,,0.00,Wunderground v.1.15,2013-03-06 02:10:00,
2013-03-05 20:11:00,45.7,21.0,30.38,NNW,329,5.0,14.0,38,0.00,,,0.00,weatherlink.com 1.10,2013-03-06 02:11:00,
2013-03-05 20:20:00,45.2,21.7,30.39,North,10,6.0,6.0,39,0.00,,,0.00,Wunderground v.1.15,2013-03-06 02:20:00,
2013-03-05 20:26:00,45.0,22.0,30.38,North,355,5.0,11.0,40,0.00,,,0.00,weatherlink.com 1.10,2013-03-06 02:26:00,
2013-03-05 20:30:00,44.8,21.9,30.38,NNW,340,6.0,7.0,40,0.00,,,0.00,Wunderground v.1.15,2013-03-06 02:30:00,
2013-03-05 20:35:00,44.5,21.6,30.39,North,5,5.0,7.0,40,0.00,,,0.00,Wunderground v.1.15,2013-03-06 02:35:00,
2013-03-05 20:41:00,44.2,22.0,30.39,North,350,3.0,9.0,41,0.00,,,0.00,weatherlink.com 1.10,2013-03-06 02:41:00,
2013-03-05 20:50:00,43.9,22.3,30.39,North,5,4.0,4.0,42,0.00,,,0.00,Wunderground v.1.15,2013-03-06 02:50:00,
2013-03-05 20:55:00,43.7,22.1,30.39,NNW,343,4.0,4.0,42,0.00,,,0.00,Wunderground v.1.15,2013-03-06 02:55:00,
2013-03-05 20:56:00,43.7,22.0,30.39,North,5,4.0,6.0,42,0.00,,,0.00,weatherlink.com 1.10,2013-03-06 02:56:00,
2013-03-05 21:05:00,43.4,22.4,30.39,NNE,26,4.0,5.0,43,0.00,,,0.00,Wunderground v.1.15,2013-03-06 03:05:00,
2013-03-05 21:12:00,43.1,22.0,30.40,NNW,346,7.0,7.0,43,0.00,,,0.00,weatherlink.com 1.10,2013-03-06 03:12:00,
2013-03-05 21:20:00,42.8,21.8,30.40,North,360,4.0,5.0,43,0.00,,,0.00,Wunderground v.1.15,2013-03-06 03:20:00,
2013-03-05 21:27:00,42.6,22.0,30.40,North,5,3.0,7.0,44,0.00,,,0.00,weatherlink.com 1.10,2013-03-06 03:27:00,
2013-03-05 21:35:00,42.4,22.0,30.40,North,355,5.0,5.0,44,0.00,,,0.00,Wunderground v.1.15,2013-03-06 03:35:00,
2013-03-05 21:40:00,42.3,21.9,30.40,North,355,5.0,5.0,44,0.00,,,0.00,Wunderground v.1.15,2013-03-06 03:40:00,
2013-03-05 21:42:00,42.2,22.0,30.40,NNW,342,6.0,10.0,45,0.00,,,0.00,weatherlink.com 1.10,2013-03-06 03:42:00,
2013-03-05 21:50:00,42.1,22.3,30.41,NNW,331,5.0,7.0,45,0.00,,,0.00,Wunderground v.1.15,2013-03-06 03:50:00,
2013-03-05 21:55:00,42.0,22.2,30.41,NNW,343,5.0,7.0,45,0.00,,,0.00,Wunderground v.1.15,2013-03-06 03:55:00,
2013-03-05 21:57:00,41.9,22.0,30.41,North,9,3.0,8.0,45,0.00,,,0.00,weatherlink.com 1.10,2013-03-06 03:57:00,
2013-03-05 22:05:00,41.8,22.0,30.41,North,360,5.0,6.0,45,0.00,,,0.00,Wunderground v.1.15,2013-03-06 04:05:00,
2013-03-05 22:10:00,41.7,21.9,30.41,North,360,5.0,8.0,45,0.00,,,0.00,Wunderground v.1.15,2013-03-06 04:10:00,
2013-03-05 22:12:00,41.7,22.0,30.41,NW,315,5.0,9.0,46,0.00,,,0.00,weatherlink.com 1.10,2013-03-06 04:12:00,
2013-03-05 22:20:00,41.6,22.3,30.41,NW,316,5.0,5.0,46,0.00,,,0.00,Wunderground v.1.15,2013-03-06 04:20:00,
2013-03-05 22:25:00,41.5,22.2,30.41,North,355,6.0,8.0,46,0.00,,,0.00,Wunderground v.1.15,2013-03-06 04:25:00,
2013-03-05 22:27:00,41.5,22.0,30.41,North,355,6.0,10.0,46,0.00,,,0.00,weatherlink.com 1.10,2013-03-06 04:27:00,
2013-03-05 22:35:00,41.1,21.9,30.41,North,355,7.0,7.0,46,0.00,,,0.00,Wunderground v.1.15,2013-03-06 04:35:00,
2013-03-05 22:40:00,40.9,22.2,30.41,North,360,7.0,8.0,47,0.00,,,0.00,Wunderground v.1.15,2013-03-06 04:40:00,
2013-03-05 22:42:00,40.9,22.0,30.41,NNW,338,10.0,12.0,47,0.00,,,0.00,weatherlink.com 1.10,2013-03-06 04:42:00,
2013-03-05 22:50:00,40.6,21.9,30.41,North,5,8.0,8.0,47,0.00,,,0.00,Wunderground v.1.15,2013-03-06 04:50:00,
2013-03-05 22:58:00,40.4,22.0,30.41,North,11,8.0,13.0,48,0.00,,,0.00,weatherlink.com 1.10,2013-03-06 04:58:00,
2013-03-05 23:00:00,40.4,22.2,30.41,NNW,344,8.0,12.0,48,0.00,,,0.00,Wunderground v.1.15,2013-03-06 05:00:00,
2013-03-05 23:05:00,40.3,22.1,30.41,North,5,8.0,12.0,48,0.00,,,0.00,Wunderground v.1.15,2013-03-06 05:05:00,
2013-03-05 23:10:00,40.3,22.1,30.41,NNW,345,8.0,8.0,48,0.00,,,0.00,Wunderground v.1.15,2013-03-06 05:10:00,
2013-03-05 23:13:00,40.3,22.0,30.41,NNE,20,4.0,12.0,49,0.00,,,0.00,weatherlink.com 1.10,2013-03-06 05:13:00,
2013-03-05 23:20:00,40.2,22.5,30.41,North,5,7.0,9.0,49,0.00,,,0.00,Wunderground v.1.15,2013-03-06 05:20:00,
2013-03-05 23:25:00,40.2,22.5,30.41,NNE,17,7.0,9.0,49,0.00,,,0.00,Wunderground v.1.15,2013-03-06 05:25:00,
2013-03-05 23:29:00,40.2,22.0,30.41,North,360,7.0,11.0,49,0.00,,,0.00,weatherlink.com 1.10,2013-03-06 05:29:00,
2013-03-05 23:30:00,40.1,22.4,30.41,NNE,20,7.0,8.0,49,0.00,,,0.00,Wunderground v.1.15,2013-03-06 05:30:00,
2013-03-05 23:35:00,40.2,22.5,30.41,NNE,24,6.0,8.0,49,0.00,,,0.00,Wunderground v.1.15,2013-03-06 05:35:00,
2013-03-05 23:40:00,40.2,22.5,30.42,NNW,340,6.0,6.0,49,0.00,,,0.00,Wunderground v.1.15,2013-03-06 05:40:00,
2013-03-05 23:44:00,40.2,22.0,30.42,North,360,6.0,9.0,49,0.00,,,0.00,weatherlink.com 1.10,2013-03-06 05:44:00,
2013-03-05 23:50:00,40.1,22.4,30.42,North,5,5.0,5.0,49,0.00,,,0.00,Wunderground v.1.15,2013-03-06 05:50:00,
2013-03-05 23:55:00,39.9,22.7,30.41,NNE,16,5.0,5.0,50,0.00,,,0.00,Wunderground v.1.15,2013-03-06 05:55:00,
2013-03-05 23:59:00,39.8,22.0,30.41,North,355,5.0,10.0,50,0.00,,,0.00,weatherlink.com 1.10,2013-03-06 05:59:00,